Location: Godiavel Galaoual
(15.2485°N, 12.6604°W)
Time: 06:58:15
(UTC+00:00)

METEOR M2 - Visible Passes

Search period start: 29 July 2021 00:00
Search period end: 08 August 2021 00:00
Orbit: 819 x 827 km, 98.5° (Epoch: 28 July)

Date Brightness Start Highest point End Pass type
(mag) Time Alt. Az. Time Alt. Az. Time Alt. Az.
29 Jul ? 19:58:46 10° SSE 20:04:09 86° WSW 20:09:33 10° NNW visible
30 Jul ? 19:39:03 10° SSE 19:44:17 56° ENE 19:49:33 10° N visible
31 Jul ? 21:01:01 10° SW 21:04:28 17° W 21:07:57 10° WNW visible
01 Aug ? 20:39:56 10° SSW 20:44:33 29° W 20:49:10 10° NW visible
02 Aug ? 20:19:27 10° S 20:24:38 49° W 20:29:49 10° NNW visible
03 Aug ? 19:59:22 10° S 20:04:45 84° WSW 20:10:08 10° NNW visible
04 Aug ? 19:39:37 10° SSE 19:44:53 58° ENE 19:50:09 10° N visible
05 Aug ? 21:01:43 10° SW 21:05:05 17° W 21:08:27 10° WNW visible
06 Aug ? 20:40:35 10° SSW 20:45:08 28° W 20:49:42 10° NW visible
07 Aug ? 20:20:05 10° S 20:25:14 48° W 20:30:23 10° NNW visible
